1487674801.17,50983,12.19,72486.3,-4.81,-4.85,-4.85,0,*5A
1487674802.43,50984,12.19,72452.0,-4.79,-5.23,-5.23,0,*5A
1487674803.65,50985,12.19,72436.0,-4.81,-5.47,-5.47,0,*5C
1487674804.9,50986,12.19,72440.5,-4.81,-5.97,-5.85,0,*5C
1487674806.18,50987,12.19,72436.0,-4.81,-5.65,-5.61,0,*5A
1487674807.37,50988,12.19,72446.5,-4.83,-5.47,-5.39,0,*5A
1487674808.63,50989,12.19,72436.5,-4.83,-5.23,-5.15,0,*57
1487674809.88,50990,12.19,72448.3,-4.83,-5.27,-5.23,0,*5E
1487674811.13,50991,12.19,72444.0,-4.83,-5.77,-5.69,0,*54
1487674812.35,50992,12.19,72432.0,-4.81,-6.35,-6.35,0,*5A
1487674813.58,50993,12.19,72440.3,-4.85,-6.51,-6.51,0,*5F
1487674814.8,50994,12.19,72456.3,-4.85,-6.69,-6.59,0,*5B
1487674816.0,50995,12.19,72468.5,-4.87,-6.43,-6.35,0,*5A
1487674817.28,50996,12.19,72464.0,-4.89,-6.23,-6.19,0,*5F
1487674818.5,50997,12.19,72464.3,-4.89,-6.05,-5.97,0,*5F
1487674819.72,50998,12.19,72470.0,-4.89,-5.97,-5.97,0,*58
1487674820.97,50999,12.19,72466.0,-4.87,-5.85,-5.81,0,*53
1487674822.23,51000,12.19,72464.8,-4.89,-5.73,-5.73,0,*51
1487674823.48,51001,12.19,72464.5,-4.87,-5.73,-5.69,0,*55
1487674824.73,51002,12.19,72454.8,-4.89,-5.97,-5.93,0,*57
1487674826.01,51003,12.19,72450.5,-4.89,-5.85,-5.85,0,*52
1487674827.27,51004,12.19,72454.0,-4.89,-5.73,-5.73,0,*55
1487674828.55,51005,12.19,72448.3,-4.89,-5.93,-5.81,0,*57
1487674829.8,51006,12.19,72454.0,-4.89,-5.97,-5.93,0,*53
1487674831.03,51007,12.19,72450.5,-4.91,-6.35,-6.27,0,*5C
1487674832.27,51008,12.19,72444.3,-4.91,-6.23,-6.23,0,*50
1487674833.55,51009,12.19,72440.5,-4.93,-5.89,-5.89,0,*53
1487674834.79,51010,12.19,72428.0,-4.91,-5.77,-5.77,0,*59
1487674836.04,51011,12.19,72434.8,-4.91,-5.77,-5.73,0,*5C
1487674837.31,51012,12.19,72440.5,-4.93,-5.85,-5.77,0,*54
1487674838.56,51013,12.19,72438.5,-4.93,-5.89,-6.01,0,*5B
1487674839.78,51014,12.19,72442.0,-4.93,-6.13,-6.13,0,*5F
1487674841.0,51015,12.19,72436.8,-4.93,-6.09,-6.09,0,*5E
1487674842.28,51016,12.19,72428.0,-4.93,-5.89,-5.77,0,*5C
1487674843.5,51017,12.19,72424.3,-4.91,-5.69,-5.55,0,*51
1487674844.75,51018,12.19,72422.0,-4.91,-5.69,-5.69,0,*51
1487674846.01,51019,12.19,72450.8,-4.93,-5.69,-5.55,0,*5D
1487674847.2,51020,12.19,72458.8,-4.91,-5.43,-5.35,0,*5B
1487674848.45,51021,12.19,72462.8,-4.91,-5.31,-5.19,0,*51
1487674849.71,51022,12.19,72462.5,-4.93,-5.35,-5.31,0,*5E
1487674850.96,51023,12.19,72464.5,-4.91,-5.07,-5.07,0,*59
1487674852.21,51024,12.19,72468.8,-4.91,-4.89,-4.89,0,*5E
1487674853.46,51025,12.19,72482.3,-4.89,-4.73,-4.61,0,*55
1487674854.65,51026,12.19,72482.0,-4.87,-4.61,-4.53,0,*5A
1487674855.85,51027,12.19,72478.5,-4.87,-4.65,-4.53,0,*5F
1487674857.04,51028,12.19,72470.5,-4.87,-4.49,-4.49,0,*55
1487674858.23,51029,12.19,72478.8,-4.83,-4.45,-4.45,0,*50
1487674859.44,51030,12.19,72484.0,-4.85,-4.45,-4.45,0,*5E
1487674860.64,51031,12.19,72484.8,-4.83,-4.33,-4.33,0,*59
1487674861.84,51032,12.19,72482.3,-4.83,-4.57,-4.57,0,*5A
1487674863.06,51033,12.19,72472.3,-4.81,-4.53,-4.57,0,*5D
1487674864.3,51034,12.19,72458.8,-4.81,-4.69,-4.65,0,*52
1487674865.5,51035,12.19,72438.8,-4.79,-4.65,-4.57,0,*59
1487674866.69,51036,12.19,72432.8,-4.79,-4.65,-4.57,0,*5A
1487674867.89,51037,12.19,72438.0,-4.79,-4.65,-4.57,0,*5B
1487674869.16,51038,12.19,72434.3,-4.77,-4.81,-4.81,0,*5B
1487674870.43,51039,12.19,72436.3,-4.77,-4.89,-4.81,0,*52
1487674871.7,51040,12.19,72426.0,-4.73,-4.89,-4.77,0,*51
1487674872.97,51041,12.19,72410.8,-4.77,-5.03,-4.93,0,*5D
1487674874.25,51042,12.19,72408.8,-4.77,-4.89,-4.89,0,*56
1487674875.51,51043,12.19,72412.5,-4.77,-4.73,-4.73,0,*57
1487674876.78,51044,12.19,72416.0,-4.73,-4.77,-4.69,0,*5B
1487674878.04,51045,12.19,72412.8,-4.73,-4.73,-4.69,0,*5E
1487674879.31,51046,12.19,72418.5,-4.77,-4.77,-4.73,0,*56
1487674880.57,51047,12.19,72410.8,-4.73,-4.73,-4.69,0,*5C
1487674881.84,51048,12.19,72418.5,-4.73,-4.73,-4.69,0,*53
1487674883.1,51049,12.19,72422.3,-4.73,-4.77,-4.77,0,*59
1487674884.34,51050,12.19,72412.8,-4.73,-4.99,-4.89,0,*50
1487674885.58,51051,12.19,72414.3,-4.71,-4.85,-4.85,0,*52
1487674886.81,51052,12.19,72410.5,-4.71,-4.73,-4.77,0,*55
1487674888.05,51053,12.19,72406.5,-4.71,-4.73,-4.69,0,*5B
1487674889.24,51054,12.19,72410.3,-4.71,-4.65,-4.57,0,*56
1487674890.5,51055,12.19,72412.5,-4.69,-4.73,-4.73,0,*5F
1487674891.76,51056,12.19,72418.5,-4.69,-4.93,-4.85,0,*5B
1487674893.0,51057,12.19,72420.0,-4.69,-4.73,-4.65,0,*5A
1487674894.22,51058,12.19,72418.8,-4.69,-4.65,-4.65,0,*52
1487674895.43,51059,12.19,72422.3,-4.69,-4.45,-4.41,0,*57
1487674896.65,51060,12.19,72426.0,-4.67,-4.41,-4.41,0,*57
1487674897.89,51061,12.19,72430.3,-4.69,-4.73,-4.57,0,*5E
1487674899.11,51062,12.19,72438.5,-4.69,-4.57,-4.53,0,*5F
1487674900.34,51063,12.19,72454.8,-4.67,-4.57,-4.57,0,*54
1487674901.53,51064,12.19,72466.0,-4.65,-4.53,-4.53,0,*51
1487674902.73,51065,12.19,72474.8,-4.65,-4.49,-4.53,0,*5B
1487674903.95,51066,12.19,72470.3,-4.67,-4.57,-4.57,0,*51
1487674905.15,51067,12.19,72466.8,-4.65,-4.61,-4.65,0,*56
1487674906.35,51068,12.19,72482.0,-4.65,-4.61,-4.57,0,*58
1487674907.54,51069,12.19,72480.0,-4.65,-4.61,-4.53,0,*5D
1487674908.74,51070,12.19,72480.0,-4.65,-4.41,-4.37,0,*55
1487674909.93,51071,12.19,72484.5,-4.61,-4.37,-4.33,0,*55
1487674911.14,51072,12.19,72488.3,-4.63,-4.53,-4.53,0,*50
1487674912.35,51073,12.19,72492.3,-4.63,-4.53,-4.49,0,*5A
1487674913.57,51074,12.19,72488.3,-4.63,-4.61,-4.61,0,*56
1487674914.81,51075,12.19,72488.5,-4.63,-4.69,-4.65,0,*5B
1487674916.0,51076,12.19,72484.5,-4.61,-4.57,-4.49,0,*59
1487674917.21,51077,12.19,72480.8,-4.63,-4.37,-4.29,0,*5A
1487674918.41,51078,12.19,72480.0,-4.61,-4.21,-4.09,0,*52
1487674919.61,51079,12.19,72480.5,-4.61,-4.09,-3.87,0,*58
1487674920.8,51080,12.19,72482.5,-4.61,-3.95,-3.83,0,*58
1487674922.02,51081,12.19,72484.8,-4.59,-4.13,-4.13,0,*55
1487674923.21,51082,12.19,72488.3,-4.57,-4.33,-4.33,0,*58
1487674924.4,51083,12.19,72486.8,-4.57,-4.41,-4.33,0,*5C
1487674925.58,51084,12.19,72490.3,-4.57,-4.45,-4.45,0,*5E
1487674926.78,51085,12.19,72484.3,-4.57,-4.57,-4.57,0,*5F
1487674928.04,51086,12.19,72480.5,-4.55,-4.81,-4.81,0,*5E
1487674929.25,51087,12.19,72480.0,-4.55,-5.39,-5.47,0,*56
1487674930.5,51088,12.19,72478.3,-4.57,-5.61,-5.61,0,*52
1487674931.69,51089,12.19,72476.8,-4.57,-5.47,-5.47,0,*53
1487674932.94,51090,12.19,72462.8,-4.59,-5.65,-5.55,0,*56
1487674934.17,51091,12.19,72460.5,-4.59,-5.55,-5.55,0,*54
1487674935.37,51092,12.19,72462.8,-4.59,-5.43,-5.43,0,*57
1487674936.59,51093,12.19,72458.5,-4.59,-5.51,-5.43,0,*55
1487674937.78,51094,12.19,72458.0,-4.57,-5.47,-5.47,0,*5F
1487674938.99,51095,12.19,72458.5,-4.59,-5.43,-5.43,0,*50
1487674940.2,51096,12.19,72460.3,-4.59,-5.43,-5.39,0,*5E
1487674941.4,51097,12.19,72454.3,-4.61,-5.51,-5.43,0,*5A
1487674942.6,51098,12.19,72454.0,-4.61,-5.55,-5.51,0,*52
1487674943.82,51099,12.19,72452.5,-4.59,-5.55,-5.43,0,*5B
1487674945.09,51100,12.19,72460.0,-4.63,-5.81,-5.69,0,*52
1487674946.29,51101,12.19,72458.0,-4.61,-5.39,-5.39,0,*57
1487674947.53,51102,12.19,72464.3,-4.61,-5.11,-4.89,0,*54
1487674948.79,51103,12.19,72468.0,-4.63,-4.89,-4.77,0,*56
1487674949.99,51104,12.19,72470.5,-4.61,-4.61,-4.57,0,*57
1487674951.18,51105,12.19,72470.5,-4.61,-4.45,-4.37,0,*56
1487674952.36,51106,12.19,72474.0,-4.61,-4.49,-4.45,0,*5C
1487674953.58,51107,12.19,72456.5,-4.59,-4.65,-4.65,0,*5A
1487674954.79,51108,12.19,72456.8,-4.57,-4.69,-4.61,0,*53
1487674956.03,51109,12.19,72470.8,-4.57,-4.69,-4.69,0,*5A
1487674957.26,51110,12.19,72466.5,-4.57,-4.81,-4.73,0,*5F
1487674958.5,51111,12.19,72466.3,-4.59,-4.99,-4.77,0,*5D
1487674959.73,51112,12.19,72464.0,-4.57,-4.85,-4.85,0,*50
1487674960.94,51113,12.19,72460.3,-4.57,-4.99,-4.93,0,*5B
1487674962.18,51114,12.19,72462.8,-4.57,-4.81,-4.69,0,*50
1487674963.37,51115,12.19,72460.8,-4.57,-4.53,-4.57,0,*53
1487674964.56,51116,12.19,72462.8,-4.57,-4.53,-4.41,0,*57
1487674965.75,51117,12.19,72458.8,-4.57,-4.29,-4.17,0,*58
1487674966.97,51118,12.19,72458.0,-4.55,-4.33,-4.21,0,*5B
1487674968.19,51119,12.19,72458.8,-4.55,-4.21,-4.17,0,*5C
1487674969.4,51120,12.19,72458.3,-4.55,-4.17,-4.09,0,*5C
1487674970.61,51121,12.19,72456.5,-4.55,-4.09,-4.05,0,*5E
1487674971.86,51122,12.19,72458.8,-4.51,-4.01,-3.91,0,*5B
1487674973.08,51123,12.19,72456.8,-4.51,-3.87,-3.75,0,*59
1487674974.32,51124,12.19,72460.8,-4.47,-3.75,-3.71,0,*50
1487674975.54,51125,12.19,72458.0,-4.47,-3.87,-3.83,0,*51
1487674976.76,51126,12.19,72460.5,-4.47,-3.87,-3.75,0,*5B
1487674977.97,51127,12.19,72460.0,-4.47,-3.95,-3.87,0,*54
1487674979.17,51128,12.19,72466.8,-4.45,-3.95,-3.83,0,*5D
1487674980.42,51129,12.19,72466.3,-4.43,-4.01,-3.95,0,*57
1487674981.65,51130,12.19,72470.8,-4.43,-3.91,-3.79,0,*53
1487674982.85,51131,12.19,72470.0,-4.45,-3.95,-3.75,0,*5C
1487674984.1,51132,12.19,72474.8,-4.43,-3.71,-3.67,0,*50
1487674985.34,51133,12.19,72472.8,-4.41,-3.63,-3.67,0,*50
1487674986.58,51134,12.19,72480.3,-4.41,-3.67,-3.63,0,*57
1487674987.78,51135,12.19,72482.3,-4.41,-3.79,-3.75,0,*5E
1487674988.99,51136,12.19,72480.0,-4.41,-3.79,-3.75,0,*5D
1487674990.21,51137,12.19,72488.8,-4.39,-3.79,-3.79,0,*5F
1487674991.42,51138,12.19,72484.3,-4.39,-4.29,-4.17,0,*5D
1487674992.62,51139,12.19,72486.0,-4.39,-4.45,-4.45,0,*51
1487674993.86,51140,12.19,72478.0,-4.41,-4.81,-4.77,0,*59
1487674995.13,51141,12.19,72472.5,-4.39,-4.89,-5.03,0,*5D
1487674996.4,51142,12.19,72474.0,-4.39,-5.19,-5.19,0,*5D
1487674997.61,51143,12.19,72460.3,-4.41,-5.43,-5.31,0,*56
1487674998.86,51144,12.19,72446.8,-4.41,-5.81,-5.81,0,*54
1487675000.06,51145,12.19,72466.0,-4.41,-6.73,-6.59,0,*5D
1487675001.25,51146,12.19,72466.0,-4.45,-6.81,-6.73,0,*5F
1487675002.47,51147,12.19,72458.0,-4.47,-6.47,-6.43,0,*55
1487675003.73,51148,12.19,72434.3,-4.47,-6.23,-6.23,0,*5E
1487675004.92,51149,12.19,72450.0,-4.49,-6.39,-6.35,0,*5D
1487675006.11,51150,12.19,72450.5,-4.49,-6.35,-6.39,0,*55
1487675007.35,51151,12.19,72436.3,-4.55,-6.63,-6.51,0,*54
1487675008.57,51152,12.19,72448.8,-4.55,-6.89,-6.81,0,*5E
1487675009.76,51153,12.19,72444.5,-4.57,-6.31,-6.31,0,*55
1487675010.95,51154,12.19,72452.5,-4.57,-6.13,-6.13,0,*52
1487675012.17,51155,12.19,72448.8,-4.57,-6.01,-5.89,0,*50
1487675013.41,51156,12.19,72460.8,-4.59,-6.19,-6.13,0,*54
1487675014.61,51157,12.19,72460.5,-4.61,-6.55,-6.59,0,*58
1487675015.85,51158,12.19,72460.5,-4.63,-6.63,-6.59,0,*50
1487675017.06,51159,12.19,72456.5,-4.63,-6.47,-6.47,0,*58
1487675018.26,51160,12.19,72456.8,-4.65,-6.35,-6.35,0,*54
1487675019.47,51161,12.19,72454.0,-4.65,-6.35,-6.31,0,*51
1487675020.69,51162,12.19,72450.5,-4.65,-6.35,-6.23,0,*51
1487675021.94,51163,12.19,72448.8,-4.67,-6.35,-6.27,0,*56
1487675023.18,51164,12.19,72452.3,-4.65,-6.23,-6.19,0,*59
1487675024.46,51165,12.19,72446.3,-4.67,-5.77,-5.61,0,*54
1487675025.71,51166,12.19,72448.3,-4.67,-5.43,-5.31,0,*55
1487675026.95,51167,12.19,72442.0,-4.69,-5.35,-5.31,0,*5B
1487675028.21,51168,12.19,72432.5,-4.69,-5.61,-5.73,0,*53
1487675029.48,51169,12.19,72434.3,-4.69,-5.89,-5.85,0,*5D
1487675030.73,51170,12.19,72436.8,-4.67,-5.97,-5.85,0,*54
1487675032.01,51171,12.19,72442.8,-4.67,-5.73,-5.61,0,*55
1487675033.22,51172,12.19,72436.0,-4.69,-5.47,-5.43,0,*5F
1487675034.5,51173,12.19,72438.5,-4.69,-5.23,-5.19,0,*53
1487675035.74,51174,12.19,72442.8,-4.71,-5.23,-5.19,0,*5D
1487675037.01,51175,12.19,72452.0,-4.69,-5.19,-5.11,0,*54
1487675038.23,51176,12.19,72456.0,-4.67,-5.43,-5.35,0,*50
1487675039.48,51177,12.19,72458.5,-4.67,-5.35,-5.31,0,*54
1487675040.75,51178,12.19,72458.3,-4.67,-5.11,-5.07,0,*58
1487675042.0,51179,12.19,72472.0,-4.67,-5.07,-4.99,0,*58
1487675043.25,51180,12.19,72468.0,-4.65,-5.31,-5.27,0,*5D
1487675044.53,51181,12.19,72466.5,-4.67,-5.85,-5.85,0,*59
1487675045.75,51182,12.19,72434.0,-4.67,-6.09,-6.01,0,*52
1487675047.02,51183,12.19,72430.3,-4.67,-5.73,-5.65,0,*5C
1487675048.24,51184,12.19,72430.8,-4.67,-5.35,-5.35,0,*5C
1487675049.51,51185,12.19,72432.8,-4.69,-5.61,-5.61,0,*53
1487675050.78,51186,12.19,72432.8,-4.69,-5.65,-5.61,0,*54
1487675052.03,51187,12.19,72436.5,-4.69,-5.97,-5.89,0,*5E
1487675053.27,51188,12.19,72438.0,-4.71,-5.69,-5.69,0,*57
1487675054.52,51189,12.19,72434.0,-4.71,-5.31,-5.27,0,*51
1487675055.78,51190,12.19,72436.3,-4.69,-4.85,-4.81,0,*53
1487675057.0,51191,12.19,72438.8,-4.69,-4.65,-4.65,0,*56
1487675058.22,51192,12.19,72444.3,-4.67,-4.53,-4.53,0,*5B
1487675059.41,51193,12.19,72440.0,-4.65,-4.53,-4.49,0,*53
1487675060.65,51194,12.19,72444.8,-4.65,-4.81,-4.89,0,*57
1487675061.9,51195,12.19,72446.0,-4.65,-5.61,-5.69,0,*56
1487675063.09,51196,12.19,72436.3,-4.65,-6.09,-6.05,0,*51
1487675064.29,51197,12.19,72458.5,-4.65,-6.39,-6.35,0,*50
1487675065.55,51198,12.19,72450.0,-4.67,-6.23,-6.23,0,*51
1487675066.77,51199,12.19,72438.8,-4.67,-6.01,-6.09,0,*58
1487675068.03,51200,12.19,72434.8,-4.67,-6.23,-6.23,0,*53
1487675069.26,51201,12.19,72424.5,-4.67,-6.35,-6.39,0,*5E
1487675070.49,51202,12.19,72414.3,-4.69,-6.63,-6.77,0,*5A
1487675071.69,51203,12.19,72412.8,-4.71,-7.11,-7.11,0,*57
1487675072.95,51204,12.19,72424.3,-4.73,-7.05,-7.05,0,*52
1487675074.2,51205,12.19,72412.8,-4.73,-6.93,-6.85,0,*54
1487675075.41,51206,12.19,72414.0,-4.73,-6.69,-6.73,0,*5B
1487675076.64,51207,12.19,72418.8,-4.77,-6.77,-6.77,0,*55
1487675077.86,51208,12.19,72416.5,-4.77,-6.73,-6.73,0,*5A
1487675079.08,51209,12.19,72416.3,-4.77,-6.73,-6.73,0,*5B
1487675080.3,51210,12.19,72426.5,-4.81,-6.55,-6.51,0,*5E
1487675081.5,51211,12.19,72410.3,-4.79,-6.55,-6.39,0,*56
1487675082.72,51212,12.19,72396.8,-4.81,-6.55,-6.51,0,*5C
1487675083.92,51213,12.19,72404.0,-4.79,-6.35,-6.35,0,*5E
1487675085.11,51214,12.19,72416.5,-4.79,-6.35,-6.13,0,*5D
1487675086.33,51215,12.19,72424.5,-4.81,-6.01,-5.97,0,*53
1487675087.55,51216,12.19,72440.5,-4.81,-6.69,-6.77,0,*53
1487675088.76,51217,12.19,72424.0,-4.81,-6.69,-6.69,0,*5D
1487675090.03,51218,12.19,72424.3,-4.81,-6.27,-6.27,0,*52
1487675091.25,51219,12.19,72416.3,-4.83,-6.01,-5.93,0,*59
1487675092.5,51220,12.19,72412.8,-4.83,-5.81,-5.77,0,*52
1487675093.77,51221,12.19,72414.5,-4.85,-5.61,-5.61,0,*5C
1487675095.02,51222,12.19,72418.8,-4.83,-5.89,-5.89,0,*59
1487675096.22,51223,12.19,72428.0,-4.83,-6.81,-6.85,0,*5C
1487675097.42,51224,12.19,72426.5,-4.83,-6.81,-6.73,0,*52
1487675098.64,51225,12.19,72416.5,-4.85,-6.73,-6.69,0,*53
1487675099.86,51226,12.19,72426.0,-4.85,-6.73,-6.73,0,*5B
1487675101.08,51227,12.19,72442.0,-4.85,-6.13,-6.05,0,*5D
1487675102.33,51228,12.19,72432.3,-4.83,-5.65,-5.61,0,*57
1487675103.55,51229,12.19,72448.3,-4.85,-5.39,-5.39,0,*54
1487675104.78,51230,12.19,72444.8,-4.85,-5.51,-5.39,0,*52
1487675106.03,51231,12.19,72454.0,-4.83,-5.11,-5.03,0,*58
1487675107.27,51232,12.19,72448.5,-4.83,-4.89,-4.85,0,*54
1487675108.54,51233,12.19,72452.8,-4.81,-4.85,-4.81,0,*5F
1487675109.78,51234,12.19,72456.0,-4.81,-4.77,-4.65,0,*5F
1487675111.02,51235,12.19,72464.5,-4.79,-4.93,-4.85,0,*5D
1487675112.21,51236,12.19,72466.5,-4.79,-5.47,-5.47,0,*59
1487675113.4,51237,12.19,72462.5,-4.79,-5.43,-5.35,0,*59
1487675114.65,51238,12.19,72454.5,-4.79,-5.61,-5.61,0,*57
1487675115.85,51239,12.19,72448.3,-4.79,-5.55,-5.55,0,*56
1487675117.1,51240,12.19,72446.3,-4.79,-5.23,-5.11,0,*59
1487675118.29,51241,12.19,72444.3,-4.79,-5.35,-5.43,0,*58
1487675119.51,51242,12.19,72458.8,-4.79,-5.61,-5.55,0,*5D
1487675120.72,51243,12.19,72456.3,-4.79,-5.55,-5.55,0,*5B
1487675121.97,51244,12.19,72462.5,-4.79,-5.23,-5.19,0,*55
1487675123.18,51245,12.19,72462.0,-4.79,-4.99,-4.93,0,*57
1487675124.44,51246,12.19,72466.0,-4.73,-4.85,-4.77,0,*59
1487675125.72,51247,12.19,72454.3,-4.73,-5.15,-5.11,0,*51
1487675126.95,51248,12.19,72440.5,-4.77,-5.55,-5.55,0,*5E
1487675128.22,51249,12.19,72440.8,-4.73,-5.81,-5.81,0,*5B
1487675129.45,51250,12.19,72424.8,-4.77,-6.31,-6.31,0,*57
1487675130.7,51251,12.19,72434.5,-4.77,-6.89,-6.97,0,*59
1487675131.92,51252,12.19,72418.5,-4.77,-6.77,-6.77,0,*55
1487675133.16,51253,12.19,72432.5,-4.79,-7.05,-7.05,0,*5A
1487675134.41,51254,12.19,72440.5,-4.81,-6.93,-6.89,0,*51
1487675135.66,51255,12.19,72440.5,-4.81,-7.19,-7.27,0,*56
1487675136.88,51256,12.19,72442.3,-4.81,-7.15,-7.19,0,*54
1487675138.16,51257,12.19,72470.5,-4.85,-6.93,-6.97,0,*59
1487675139.43,51258,12.19,72426.3,-4.85,-7.05,-6.97,0,*58
1487675140.65,51259,12.19,72384.5,-4.85,-7.23,-7.23,0,*53
1487675141.91,51260,12.19,72350.3,-4.87,-7.43,-7.43,0,*5B
1487675143.18,51261,12.19,72406.3,-4.89,-7.77,-7.77,0,*54
1487675144.46,51262,12.19,72406.5,-4.89,-7.65,-7.57,0,*56
1487675145.7,51263,12.19,72402.5,-4.93,-7.49,-7.57,0,*52
1487675146.93,51264,12.19,72404.8,-4.91,-8.11,-8.21,0,*5B
1487675148.15,51265,12.19,72388.0,-4.97,-8.17,-8.17,0,*5F
1487675149.43,51266,12.19,72398.5,-4.97,-7.61,-7.61,0,*5C
1487675150.68,51267,12.19,72406.5,-4.97,-6.93,-6.85,0,*5A
1487675151.9,51268,12.19,72402.0,-4.97,-6.81,-6.69,0,*54
1487675153.1,51269,12.19,72420.5,-5.01,-6.73,-6.59,0,*55
1487675154.32,51270,12.19,72416.8,-5.03,-6.59,-6.55,0,*5B
1487675155.51,51271,12.19,72430.3,-5.01,-6.69,-6.59,0,*57
1487675156.71,51272,12.19,72426.0,-5.01,-6.59,-6.47,0,*58
1487675157.9,51273,12.19,72416.0,-5.01,-6.69,-6.59,0,*55
1487675159.11,51274,12.19,72420.5,-5.03,-6.89,-6.85,0,*5F
1487675160.31,51275,12.19,72432.8,-5.01,-6.69,-6.59,0,*53
1487675161.52,51276,12.19,72416.3,-5.03,-6.73,-6.69,0,*5A
1487675162.74,51277,12.19,72430.5,-5.03,-6.35,-6.35,0,*50
1487675163.99,51278,12.19,72440.8,-5.01,-6.23,-6.19,0,*54
1487675165.18,51279,12.19,72458.5,-5.01,-6.55,-6.55,0,*5C
1487675166.4,51280,12.19,72450.3,-5.03,-6.47,-6.47,0,*58
1487675167.6,51281,12.19,72446.5,-5.01,-6.55,-6.43,0,*5C
1487675168.84,51282,12.19,72450.0,-5.03,-6.23,-6.09,0,*52
1487675170.09,51283,12.19,72440.3,-5.01,-5.85,-5.85,0,*59
1487675171.34,51284,12.19,72450.0,-5.03,-5.93,-5.97,0,*58
1487675172.55,51285,12.19,72450.5,-5.03,-6.05,-6.05,0,*5D
1487675173.75,51286,12.19,72450.5,-5.01,-6.31,-6.43,0,*59
1487675174.94,51287,12.19,72428.8,-5.01,-6.47,-6.47,0,*5D
1487675176.17,51288,12.19,72378.8,-5.03,-6.35,-6.43,0,*51
1487675177.38,51289,12.19,72362.5,-5.01,-6.31,-6.23,0,*50
1487675178.63,51290,12.19,72370.0,-5.01,-5.93,-5.85,0,*5C
1487675179.84,51291,12.19,72392.0,-5.01,-5.55,-5.51,0,*5E
1487675181.02,51292,12.19,72432.5,-5.01,-5.43,-5.43,0,*59
1487675182.22,51293,12.19,72438.3,-5.01,-5.39,-5.39,0,*58
1487675183.41,51294,12.19,72448.8,-4.95,-5.39,-5.39,0,*53
1487675184.66,51295,12.19,72452.8,-4.95,-5.23,-5.23,0,*52
1487675185.91,51296,12.19,72464.3,-4.95,-5.23,-5.15,0,*54
1487675187.17,51297,12.19,72460.5,-4.95,-5.03,-5.03,0,*50
1487675188.4,51298,12.19,72462.5,-4.95,-4.93,-4.93,0,*5F
1487675189.62,51299,12.19,72464.3,-4.91,-4.99,-4.89,0,*5B
1487675190.87,51300,12.19,72472.3,-4.91,-4.89,-4.77,0,*5A
1487675192.05,51301,12.19,72480.0,-4.91,-4.99,-4.99,0,*5A
1487675193.25,51302,12.19,72474.8,-4.91,-5.97,-5.97,0,*59
1487675194.44,51303,12.19,72464.8,-4.91,-6.01,-6.01,0,*58
1487675195.66,51304,12.19,72470.8,-4.91,-6.27,-6.35,0,*5C
1487675196.87,51305,12.19,72464.8,-4.91,-6.81,-6.81,0,*5E
1487675198.14,51306,12.19,72458.5,-4.93,-7.31,-7.31,0,*5F
1487675199.38,51307,12.19,72450.3,-4.93,-7.15,-7.05,0,*5F
1487675200.58,51308,12.19,72454.3,-4.95,-6.51,-6.43,0,*54
1487675201.82,51309,12.19,72456.3,-4.95,-5.73,-5.65,0,*51
1487675203.06,51310,12.19,72452.8,-4.95,-5.77,-5.73,0,*5A
1487675204.3,51311,12.19,72452.3,-4.95,-5.77,-5.73,0,*5B
1487675205.55,51312,12.19,72448.8,-4.95,-5.61,-5.61,0,*5C
1487675206.77,51313,12.19,72442.0,-4.97,-5.47,-5.39,0,*56
1487675208.05,51314,12.19,72440.3,-4.93,-5.11,-5.07,0,*5B
1487675209.3,51315,12.19,72438.8,-4.93,-5.07,-4.99,0,*5B
1487675210.51,51316,12.19,72444.3,-4.91,-4.99,-4.93,0,*56
1487675211.75,51317,12.19,72448.0,-4.91,-4.93,-4.93,0,*5D
1487675212.94,51318,12.19,72446.5,-4.91,-4.99,-4.99,0,*52
1487675214.21,51319,12.19,72448.0,-4.89,-4.93,-4.89,0,*51
1487675215.46,51320,12.19,72444.3,-4.87,-5.03,-4.93,0,*56
1487675216.71,51321,12.19,72438.8,-4.87,-5.07,-5.07,0,*5F
1487675217.9,51322,12.19,72448.5,-4.87,-5.43,-5.43,0,*5C
1487675219.18,51323,12.19,72444.3,-4.89,-5.69,-5.65,0,*5F
1487675220.46,51324,12.19,72436.3,-4.89,-5.85,-5.81,0,*50
1487675221.71,51325,12.19,72432.8,-4.87,-5.65,-5.65,0,*5B
1487675222.96,51326,12.19,72422.8,-4.87,-5.31,-5.27,0,*5F
1487675224.22,51327,12.19,72424.5,-4.87,-5.07,-5.03,0,*5D
1487675225.46,51328,12.19,72422.8,-4.87,-4.77,-4.85,0,*5B
1487675226.65,51329,12.19,72424.0,-4.87,-4.65,-4.65,0,*57
1487675227.87,51330,12.19,72428.5,-4.87,-4.77,-4.65,0,*5C
1487675229.1,51331,12.19,72426.3,-4.85,-4.57,-4.49,0,*53
1487675230.29,51332,12.19,72420.0,-4.83,-4.57,-4.45,0,*5A
1487675231.5,51333,12.19,72432.8,-4.81,-4.45,-4.45,0,*5A
1487675232.71,51334,12.19,72440.0,-4.79,-4.69,-4.65,0,*56
1487675233.95,51335,12.19,72452.8,-4.81,-4.69,-4.65,0,*50
1487675235.15,51336,12.19,72456.8,-4.79,-4.57,-4.57,0,*58
1487675236.34,51337,12.19,72468.8,-4.79,-4.53,-4.53,0,*59
1487675237.53,51338,12.19,72476.5,-4.79,-4.41,-4.45,0,*52
1487675238.73,51339,12.19,72482.0,-4.79,-4.57,-4.53,0,*53
1487675240.0,51340,12.19,72476.3,-4.77,-4.73,-4.77,0,*53
1487675241.27,51341,12.19,72474.8,-4.73,-5.11,-5.15,0,*56
1487675242.49,51342,12.19,72466.8,-4.77,-5.51,-5.51,0,*55
1487675243.75,51343,12.19,72452.3,-4.73,-5.65,-5.55,0,*53
1487675244.96,51344,12.19,72466.5,-4.77,-5.43,-5.43,0,*53
1487675246.2,51345,12.19,72466.5,-4.77,-5.55,-5.55,0,*52
1487675247.48,51346,12.19,72474.8,-4.77,-5.81,-5.85,0,*55
1487675248.7,51347,12.19,72430.8,-4.81,-6.09,-6.01,0,*51
1487675249.9,51348,12.19,72428.3,-4.79,-6.35,-6.35,0,*51
1487675251.11,51349,12.19,72408.3,-4.79,-6.27,-6.35,0,*53
1487675252.35,51350,12.19,72404.0,-4.79,-6.27,-6.27,0,*58
1487675253.62,51351,12.19,72376.8,-4.81,-6.63,-6.63,0,*5E
1487675254.84,51352,12.19,72394.0,-4.85,-6.81,-6.73,0,*54
1487675256.08,51353,12.19,72372.0,-4.85,-6.81,-6.81,0,*58
1487675257.31,51354,12.19,72396.8,-4.85,-7.11,-7.11,0,*5F
1487675258.58,51355,12.19,72396.0,-4.89,-7.27,-7.27,0,*52
1487675259.85,51356,12.19,72402.8,-4.89,-7.01,-6.97,0,*5F
1487675261.08,51357,12.19,72418.0,-4.89,-6.73,-6.59,0,*58
1487675262.27,51358,12.19,72408.5,-4.91,-6.77,-6.77,0,*56
1487675263.46,51359,12.19,72426.0,-4.91,-6.69,-6.69,0,*57
1487675264.7,51360,12.19,72412.3,-4.91,-6.63,-6.63,0,*5D
1487675265.92,51361,12.19,72364.0,-4.93,-6.69,-6.69,0,*5E
1487675267.12,51362,12.19,72390.0,-4.91,-6.77,-6.81,0,*56
1487675268.36,51363,12.19,72394.0,-4.93,-6.81,-6.81,0,*5C
1487675269.63,51364,12.19,72390.8,-4.97,-6.93,-6.93,0,*5F
1487675270.86,51365,12.19,72402.8,-4.97,-6.55,-6.55,0,*5E
1487675272.07,51366,12.19,72406.8,-4.97,-6.69,-6.69,0,*5D
1487675273.31,51367,12.19,72398.3,-4.97,-6.81,-6.81,0,*5C
1487675274.52,51368,12.19,72410.8,-4.97,-6.69,-6.69,0,*53
1487675275.71,51369,12.19,72422.8,-5.01,-6.85,-6.89,0,*50
1487675276.93,51370,12.19,72422.5,-5.01,-6.89,-6.97,0,*5B
1487675278.15,51371,12.19,72412.3,-5.01,-7.11,-7.01,0,*54
1487675279.37,51372,12.19,72422.8,-5.03,-6.77,-6.77,0,*54
1487675280.59,51373,12.19,72396.3,-5.03,-6.05,-6.05,0,*55
1487675281.83,51374,12.19,72408.3,-5.01,-5.77,-5.65,0,*53
1487675283.05,51375,12.19,72402.3,-5.03,-5.39,-5.39,0,*53
1487675284.24,51376,12.19,72410.8,-5.01,-5.39,-5.39,0,*52
1487675285.44,51377,12.19,72420.5,-5.01,-5.51,-5.51,0,*53
1487675286.69,51378,12.19,72424.0,-5.01,-5.27,-5.27,0,*5C
1487675287.97,51379,12.19,72416.3,-4.97,-5.15,-5.03,0,*54
1487675289.22,51380,12.19,72430.8,-4.95,-5.11,-5.03,0,*54
1487675290.47,51381,12.19,72436.8,-4.95,-5.03,-4.93,0,*5E
1487675291.68,51382,12.19,72434.3,-4.95,-4.99,-4.93,0,*5F
1487675292.95,51383,12.19,72442.0,-4.93,-4.89,-4.89,0,*52
1487675294.22,51384,12.19,72426.3,-4.93,-4.77,-4.81,0,*5C
1487675295.49,51385,12.19,72450.5,-4.93,-4.81,-4.77,0,*5D
1487675296.74,51386,12.19,72450.3,-4.91,-5.19,-5.11,0,*5D
1487675298.02,51387,12.19,72442.3,-4.89,-5.07,-5.07,0,*5D
1487675299.27,51388,12.19,72430.0,-4.89,-5.51,-5.65,0,*55
1487675300.55,51389,12.19,72430.0,-4.89,-5.81,-5.81,0,*53
1487675301.8,51390,12.19,72440.0,-4.91,-5.81,-5.85,0,*56
1487675303.02,51391,12.19,72428.8,-4.93,-5.97,-5.97,0,*51
1487675304.21,51392,12.19,72432.5,-4.91,-6.13,-6.09,0,*5B
1487675305.44,51393,12.19,72428.0,-4.91,-5.61,-5.55,0,*56
1487675306.64,51394,12.19,72430.5,-4.91,-5.35,-5.43,0,*57
1487675307.89,51395,12.19,72430.0,-4.89,-5.55,-5.65,0,*5D
1487675309.1,51396,12.19,72426.0,-4.91,-6.27,-6.39,0,*5B